Temperature
6 6 6 6 6 6 5 5 5 5 5 6 6 6 6 5 5 5 6 6 6 6 6 6 6 6 6 6 6 6 6 6 6 6 6 6 6 6
6 6 6 6 5 5 5 5 5 4 4 5 5 5 5 5 5 5 5 5 5 5 5 5 5 5 5 5 5 5 5 5 5 5 5 5 5 5
5 5 5 5 5 5 5 4 4 4 4 4 5 4 4 4 4 4 4 4 4 4 4 4 4 4 4 4 4 4 4 4 5 5 5 5 5 5
5 5 5 5 4 4 4 4 4 4 4 4 4 4 4 4 4 4 4 4 4 4 4 4 3 3 3 3 3 3 3 4 4 4 4 4 4 4
4 4 4 4 4 4 4 4 4 3 3 3 3 3 3 3 3 3 3 3 3 3 3 3 3 3 3 3 3 3 3 3 3 3 3 3 3 3
4 4 4 4 3 3 3 3 3 3 3 3 3 3 3 3 3 3 3 3 3 3 3 2 2 2 2 2 2 2 2 2 2 2 2 2 2 2
4 4 3 3 3 3 3 2 2 2 2 2 2 2 2 2 2 2 2 2 2 2 2 2 2 2 2 2 2 2 2 1 1 1 1 1 1 1
3 3 3 3 3 2 2 2 2 2 2 2 2 1 2 1 1 1 1 1 2 2 1 2 1 1 1 1 1 1 1 1 1 1 1 1 1 1
3 3 3 2 2 2 2 2 2 1 1 1 1 1 1 1 1 1 1 1 1 1 1 1 1 1 1 1 1 0 0 0 0 0 0 0 0 0
3 2 2 2 2 1 1 1 1 1 1 1 1 1 1 0 0 0 0 0 0 0 -0 -0 1 1 1 0 0 -0 -0 -0 -0 -0 -0 -0 -0 -0
2 2 2 1 1 1 1 1 1 1 1 0 0 0 0 -0 -0 -0 -0 -0 -0 -0 -1 -1 -1 -0 -0 -0 -0 -1 -1 -1 -1 -1 -1 -1 -1 -1
2 2 1 1 1 1 0 0 0 1 0 0 -0 -0 -0 -0 -1 -1 -1 -1 -1 -1 -1 -2 -2 -2 -2 -1 -1 -1 -1 -1 -2 -2 -2 -2 -2 -2
1 1 1 1 0 0 0 0 0 -0 -0 -0 -0 -1 -1 -1 -1 -1 -1 -2 -2 -2 -2 -3 -3 -3 -3 -3 -2 -2 -2 -2 -2 -2 -2 -2 -2 -3
1 1 1 0 0 -0 -0 -0 -0 -1 -1 -1 -1 -1 -1 -1 -1 -2 -2 -2 -2 -2 -3 -3 -3 -3 -4 -4 -3 -2 -2 -3 -3 -3 -3 -3 -3 -3
0 0 0 -0 -0 -0 -0 -1 -1 -1 -1 -1 -1 -1 -1 -2 -2 -2 -2 -2 -3 -3 -3 -3 -4 -4 -4 -4 -4 -4 -3 -3 -3 -3 -3 -3 -3 -3
-0 -0 -1 -1 -1 -1 -1 -1 -1 -1 -2 -2 -2 -2 -2 -2 -2 -3 -3 -3 -3 -3 -3 -4 -4 -4 -4 -4 -4 -4 -4 -4 -4 -4 -4 -4 -4 -4
-1 -1 -1 -1 -1 -1 -1 -1 -2 -2 -2 -2 -2 -2 -2 -3 -3 -3 -3 -3 -4 -4 -4 -4 -4 -4 -4 -4 -4 -4 -4 -5 -5 -5 -5 -4 -4 -4
-1 -1 -1 -1 -2 -2 -2 -2 -2 -2 -2 -3 -3 -3 -3 -3 -3 -3 -4 -4 -4 -4 -4 -4 -5 -5 -4 -4 -5 -5 -5 -5 -5 -5 -5 -5 -4 -4
-1 -1 -1 -2 -2 -2 -2 -2 -2 -2 -3 -3 -3 -3 -3 -3 -4 -4 -4 -4 -4 -5 -5 -5 -5 -6 -6 -6 -5 -5 -6 -6 -6 -5 -5 -6 -6 -5
-1 -2 -2 -2 -2 -2 -3 -3 -3 -3 -3 -3 -3 -4 -4 -4 -4 -4 -5 -5 -5 -5 -5 -5 -6 -6 -6 -7 -7 -6 -6 -6 -6 -6 -6 -6 -6 -5
-2 -2 -2 -2 -3 -3 -3 -3 -3 -3 -3 -4 -4 -4 -4 -4 -5 -5 -5 -5 -5 -6 -6 -6 -6 -7 -7 -7 -7 -6 -6 -6 -7 -7 -7 -7 -6 -6
-2 -2 -2 -3 -3 -3 -3 -3 -3 -4 -4 -4 -4 -4 -5 -5 -5 -5 -5 -6 -6 -6 -6 -6 -6 -7 -7 -7 -7 -7 -6 -6 -6 -7 -7 -7 -7 -7
-2 -2 -2 -3 -3 -3 -3 -4 -4 -4 -4 -4 -5 -5 -5 -5 -5 -6 -6 -6 -6 -6 -7 -7 -7 -7 -7 -7 -7 -7 -7 -7 -7 -6 -6 -6 -7 -7
Wind_Speed
3 3 3 3 3 3 3 3 4 5 5 3 2 2 3 4 6 6 7 8 8 8 9 9 9 9 10 10 11 11 11 11 11 12 12 12 12 12
2 3 3 3 3 3 3 3 4 4 5 3 3 3 3 4 6 6 6 8 8 8 8 9 9 9 9 10 11 11 11 11 11 12 12 12 12 12
3 3 4 3 3 3 3 3 3 3 6 5 3 2 3 4 5 6 6 6 7 8 8 8 8 8 8 9 10 11 11 11 11 11 12 12 12 12
4 4 4 3 3 3 3 3 3 4 4 6 4 3 3 3 4 4 5 6 6 7 8 8 7 8 8 9 10 10 10 10 10 10 10 11 12 12
5 5 5 4 4 4 4 4 3 3 3 5 5 3 3 3 4 4 4 4 6 7 8 7 7 8 9 9 9 9 9 10 10 10 10 10 11 12
5 5 5 5 5 5 4 4 4 3 3 4 5 4 3 3 2 3 4 3 4 5 6 7 8 9 9 9 9 9 9 10 10 10 11 11 11 12
5 5 5 6 7 6 5 4 4 4 4 4 4 3 3 3 3 3 4 5 4 2 3 4 5 5 6 8 9 9 9 10 10 10 11 11 11 12
6 6 6 6 7 8 8 7 6 5 4 4 4 4 5 4 3 3 3 4 4 2 3 5 3 4 5 6 8 9 9 10 10 10 10 11 12 12
6 6 5 5 7 5 6 7 7 7 7 5 5 5 5 4 3 4 4 4 4 3 3 5 3 4 5 7 9 9 9 9 9 10 11 12 12 13
7 7 6 6 6 6 4 4 4 4 5 4 5 5 4 4 4 4 4 4 4 3 1 3 3 4 5 7 8 7 9 10 10 12 12 13 13 14
6 6 7 7 9 9 5 5 5 4 4 5 5 5 5 5 3 1 1 2 3 2 0 2 3 3 4 3 5 7 9 10 11 12 13 13 14 14
5 6 9 9 10 9 6 5 6 5 3 3 3 4 4 4 3 2 2 2 2 3 1 1 2 2 4 3 3 5 6 9 11 12 13 14 14 10
6 5 6 10 11 11 9 6 8 5 3 3 3 3 2 2 1 1 1 2 3 4 2 0 1 1 2 4 3 2 3 5 7 9 12 13 14 11
7 6 6 10 10 10 8 8 9 6 2 2 3 3 3 3 2 2 2 3 4 5 4 2 2 2 2 4 4 3 4 5 5 6 7 12 13 14
6 9 9 9 9 7 9 9 6 4 3 3 4 4 3 2 1 1 1 2 3 5 5 5 3 3 3 4 4 5 5 5 4 5 5 7 7 7
6 7 9 8 6 6 6 5 4 4 4 4 4 3 1 1 1 1 1 1 2 3 3 4 4 3 4 5 6 7 6 5 5 6 7 7 7 6
4 3 3 3 4 4 3 3 3 3 4 3 3 2 2 2 1 1 1 1 1 2 3 2 3 4 5 5 5 7 6 6 6 6 6 8 7 6
5 4 5 5 5 5 5 4 4 4 4 4 3 3 3 3 2 1 1 1 2 3 3 3 3 3 2 3 6 7 5 5 6 6 5 6 8 7
6 5 6 6 6 5 5 5 5 4 4 4 4 4 3 3 2 2 2 2 2 3 3 3 2 1 3 5 4 4 4 5 6 6 5 5 7 9
5 6 6 6 6 6 6 5 4 4 4 4 4 4 4 3 3 3 3 3 3 3 3 3 2 2 3 4 4 5 6 6 5 6 7 6 7 10
6 6 6 6 5 6 6 5 5 5 5 5 4 4 4 4 3 3 3 4 3 3 4 4 4 5 3 2 4 5 5 7 8 6 7 7 7 6
6 6 6 6 6 6 5 5 5 5 5 5 5 5 4 4 4 4 4 3 3 3 4 3 3 2 1 2 5 6 7 8 9 11 9 8 5 5
6 6 6 6 6 5 5 6 6 5 5 5 5 5 5 4 4 4 4 4 3 3 3 3 2 2 2 3 4 5 7 8 7 7 6 8 10 12
Wind_Direction
278 284 284 284 279 269 260 249 257 279 283 265 268 297 320 327 330 339 334 330 328 327 330 332 329 328 327 326 325 324 322 321 321 319 313 309 304 303
283 289 290 291 289 284 273 265 252 253 269 275 270 289 311 316 324 331 324 325 323 323 328 328 326 327 328 326 325 323 322 320 320 319 317 312 308 305
288 284 284 285 285 287 282 272 264 252 263 278 270 286 291 297 314 322 322 321 321 320 321 318 320 326 328 328 325 323 320 319 318 318 319 320 315 308
274 274 277 283 282 282 277 270 266 258 257 275 281 280 277 288 298 304 320 322 315 314 313 311 316 322 321 321 321 322 322 322 321 318 317 318 318 313
263 261 265 264 270 272 268 266 268 272 260 264 276 277 283 297 305 304 304 307 316 316 313 313 316 318 317 316 319 322 324 322 319 318 318 316 315 313
259 258 258 251 254 260 265 260 263 269 270 268 272 278 278 288 294 300 307 310 307 316 317 313 312 313 315 315 318 321 320 319 318 317 316 315 313 313
264 261 259 257 258 258 263 258 256 261 264 269 272 277 275 285 285 291 296 305 299 305 309 306 310 308 313 315 316 317 318 318 316 317 316 316 314 313
262 264 263 260 262 268 268 262 254 253 256 259 265 266 270 265 273 282 292 309 303 311 313 297 292 292 299 306 310 315 319 321 321 323 324 322 318 316
252 257 265 264 265 260 267 270 266 261 254 247 255 258 264 259 259 269 270 268 268 285 309 290 300 292 297 304 309 311 317 319 321 325 326 323 320 319
245 245 250 258 255 251 252 260 261 265 262 253 246 258 262 260 247 249 260 275 273 272 263 275 299 291 300 306 306 316 321 320 321 324 321 320 321 319
246 241 243 249 257 254 244 247 262 269 269 260 260 266 276 276 264 249 269 288 289 285 287 273 297 302 297 290 307 321 322 323 325 324 321 320 323 322
253 246 248 251 256 255 237 232 248 258 255 271 274 280 287 287 277 241 230 245 271 281 282 290 291 325 313 292 294 310 317 322 327 326 324 322 322 323
252 251 247 254 256 253 246 236 244 247 231 239 254 265 272 276 280 261 231 221 233 252 258 273 267 280 271 296 305 298 307 311 318 315 318 319 319 319
249 250 248 254 255 255 252 245 245 245 227 232 249 256 254 255 257 260 255 247 240 249 257 241 233 241 268 287 291 299 303 297 302 302 309 317 317 315
249 251 257 256 256 256 251 246 241 229 213 230 244 249 246 241 236 271 290 289 286 276 268 250 235 243 245 262 278 292 306 302 297 301 307 309 304 306
253 249 253 255 251 244 245 245 231 219 220 230 239 241 225 214 223 236 262 300 312 303 288 270 256 240 256 263 267 279 286 288 301 306 307 303 299 294
246 242 239 238 241 240 234 232 224 220 227 223 224 230 229 226 235 225 228 246 256 291 309 306 289 271 252 255 268 270 276 282 284 298 308 309 302 294
250 239 238 234 236 236 234 231 226 224 222 216 217 220 222 223 229 232 235 239 265 283 293 301 321 327 315 275 237 257 275 282 294 302 300 302 302 301
246 237 237 235 235 233 231 228 228 225 215 209 212 214 215 217 218 229 235 248 262 276 285 292 296 301 314 311 298 240 259 292 303 306 299 291 292 298
234 237 240 237 234 233 229 228 225 218 213 210 209 208 206 209 214 223 229 237 253 271 284 284 268 250 254 276 291 296 283 278 291 299 301 299 289 292
238 236 237 236 235 231 227 224 219 216 210 206 208 207 204 204 215 222 230 244 251 259 271 278 271 283 279 287 291 293 297 292 285 283 294 304 306 307
240 237 237 233 229 226 223 220 219 215 206 207 208 204 202 203 212 217 225 234 242 250 264 280 291 298 276 271 287 296 304 311 309 303 290 273 283 295
240 237 235 231 226 220 219 218 218 218 208 203 202 200 198 205 211 212 217 223 234 250 265 282 294 292 277 273 286 297 303 311 316 321 313 311 304 293
Height
1484 1483 1482 1481 1480 1479 1478 1477 1476 1472 1470 1469 1469 1467 1466 1465 1464 1463 1461 1460 1459 1458 1456 1455 1454 1453 1451 1450 1449 1448 1447 1445 1444 1443 1443 1442 1441 1441
1480 1479 1478 1477 1476 1475 1474 1473 1472 1470 1467 1464 1464 1463 1462 1461 1460 1458 1457 1455 1454 1453 1451 1450 1449 1448 1446 1445 1444 1442 1441 1440 1439 1438 1437 1436 1435 1435
1476 1475 1474 1473 1472 1471 1470 1468 1467 1466 1463 1460 1460 1459 1458 1456 1455 1454 1452 1451 1449 1448 1446 1445 1444 1443 1441 1440 1438 1437 1436 1434 1433 1432 1431 1430 1429 1429
1472 1471 1470 1469 1467 1466 1465 1464 1463 1461 1459 1456 1455 1454 1453 1452 1451 1449 1447 1446 1444 1443 1441 1440 1439 1438 1436 1435 1433 1432 1431 1429 1428 1427 1426 1425 1424 1423
1468 1467 1465 1464 1463 1462 1460 1459 1458 1456 1455 1453 1450 1450 1449 1448 1446 1444 1443 1441 1439 1438 1437 1435 1434 1433 1431 1430 1428 1427 1426 1424 1423 1422 1421 1419 1418 1418
1463 1462 1461 1460 1458 1457 1456 1454 1453 1451 1450 1448 1446 1445 1444 1443 1441 1439 1437 1436 1435 1433 1432 1431 1429 1428 1426 1424 1423 1422 1420 1419 1418 1416 1415 1414 1413 1412
1458 1457 1456 1455 1454 1452 1451 1450 1449 1447 1445 1444 1442 1441 1439 1438 1437 1435 1433 1431 1430 1429 1427 1426 1425 1423 1421 1420 1418 1416 1415 1414 1412 1411 1409 1408 1407 1406
1453 1452 1451 1450 1449 1447 1446 1445 1444 1443 1441 1439 1438 1436 1435 1434 1432 1431 1429 1427 1425 1425 1423 1421 1420 1418 1416 1415 1413 1411 1410 1408 1407 1405 1404 1403 1401 1400
1448 1446 1445 1444 1443 1442 1441 1440 1439 1438 1437 1435 1433 1432 1430 1429 1428 1426 1425 1423 1422 1420 1418 1416 1415 1414 1412 1410 1409 1407 1405 1404 1402 1401 1399 1398 1396 1394
1442 1441 1440 1439 1438 1437 1435 1434 1433 1432 1431 1430 1429 1427 1426 1425 1423 1422 1420 1419 1417 1416 1414 1411 1410 1408 1407 1406 1404 1403 1401 1400 1398 1396 1395 1393 1391 1389
1436 1435 1434 1433 1432 1431 1430 1429 1428 1427 1426 1425 1424 1423 1422 1420 1419 1417 1416 1414 1412 1411 1410 1407 1405 1403 1402 1401 1400 1399 1397 1396 1394 1392 1390 1388 1385 1383
1430 1429 1428 1427 1427 1426 1425 1423 1422 1422 1421 1420 1419 1418 1417 1415 1414 1413 1411 1410 1408 1406 1405 1404 1401 1399 1397 1395 1395 1394 1392 1391 1389 1387 1385 1383 1380 1378
1423 1422 1422 1422 1421 1420 1419 1418 1418 1417 1416 1415 1414 1413 1412 1411 1410 1408 1407 1406 1405 1403 1402 1400 1397 1396 1395 1391 1390 1389 1388 1386 1384 1382 1380 1378 1376 1373
1417 1417 1416 1416 1415 1414 1413 1413 1413 1412 1411 1410 1409 1408 1407 1406 1405 1404 1403 1402 1401 1400 1398 1396 1394 1393 1390 1388 1385 1384 1384 1382 1380 1378 1375 1373 1371 1369
1411 1411 1410 1410 1409 1408 1408 1408 1407 1407 1406 1405 1404 1404 1403 1403 1401 1400 1399 1398 1397 1396 1394 1393 1391 1389 1388 1385 1382 1380 1378 1377 1376 1373 1371 1368 1365 1362
1406 1405 1405 1404 1403 1403 1402 1402 1402 1401 1401 1400 1400 1400 1399 1398 1397 1397 1395 1394 1393 1392 1392 1390 1388 1386 1384 1382 1380 1377 1376 1374 1371 1369 1366 1363 1361 1358
1400 1399 1398 1398 1397 1397 1397 1396 1396 1396 1396 1395 1395 1395 1395 1394 1394 1393 1392 1391 1390 1388 1388 1387 1385 1383 1381 1379 1376 1375 1373 1370 1368 1365 1361 1357 1355 1353
1394 1393 1392 1392 1392 1391 1391 1391 1391 1391 1391 1391 1391 1391 1390 1390 1389 1389 1388 1387 1386 1385 1384 1383 1381 1379 1377 1375 1375 1371 1369 1367 1364 1361 1358 1353 1349 1348
1388 1387 1387 1386 1386 1386 1386 1386 1386 1386 1386 1386 1386 1386 1386 1385 1385 1385 1384 1384 1383 1382 1381 1380 1378 1376 1373 1371 1369 1369 1366 1363 1360 1357 1354 1351 1346 1343
1382 1382 1381 1381 1381 1381 1381 1381 1381 1381 1381 1381 1381 1381 1381 1381 1381 1381 1380 1380 1379 1378 1377 1376 1375 1373 1372 1370 1366 1365 1364 1360 1357 1353 1350 1346 1343 1340
1376 1376 1376 1376 1375 1375 1375 1376 1376 1376 1376 1376 1376 1377 1377 1377 1376 1377 1376 1376 1376 1375 1374 1373 1373 1372 1369 1367 1364 1361 1360 1359 1355 1351 1347 1343 1339 1335
1371 1371 1370 1370 1370 1370 1370 1370 1371 1371 1371 1371 1372 1372 1372 1372 1372 1373 1373 1372 1372 1372 1371 1371 1370 1368 1367 1364 1361 1359 1356 1354 1352 1349 1346 1343 1339 1334
1365 1365 1365 1364 1364 1365 1365 1365 1365 1366 1366 1367 1367 1367 1368 1368 1368 1369 1369 1369 1369 1368 1368 1367 1366 1365 1363 1362 1359 1356 1354 1351 1348 1345 1343 1340 1337 1334